Location: C�an Torras
(41.5052°N, 1.9280°E)
Time: 01:20:11
(UTC+00:00)

Cosmos 44 - Pass Details

Date: 20 January 2021
Orbit: 572 x 790 km, 65.1° (Epoch: 08 March)

Event Time Altitude Azimuth Distance (km) Brightness Sun altitude
Rises 19:12:07 0° 215° (SW) 2,931 7.1 -25.7°
Reaches altitude 10° 19:14:20 10° 217° (SW) 2,058 6.2 -26.1°
Enters shadow 19:18:48 74° 276° (W) 716 3.3 -27.0°
